Regional Weather Roundup
Issued by NWS

Home | Current Version | Previous Version | Graphics & Text | Print | Product List | Glossary On
Versions: 1 2 3 4 5 6 7 8 9 10 11 12 13 14 15 16 17 18 19 20 21 22 23 24 25 26 27 28 29 30 31 32 33 34 35 36 37 38 39 40 41 42 43 44 45 46 47 48 49 50
000
ASUS43 KMKX 272259
RWRWI

WISCONSIN REGIONAL WEATHER ROUNDUP
NATIONAL WEATHER SERVICE MILWAUKEE/SULLIVAN WI
500 PM CST TUE JAN 27 2015

NOTE: "FAIR" INDICATES FEW OR NO CLOUDS BELOW 12,000 FEET WITH NO
SIGNIFICANT WEATHER AND/OR OBSTRUCTIONS TO VISIBILITY.

WIZ001-002-006>008-014>016-023>028-280000-
NORTHWEST WISCONSIN

CITY           SKY/WX    TMP DP  RH WIND       PRES   REMARKS
SUPERIOR ARPT  CLOUDY    30  24  79 S6        30.15F WCI  24
ASHLAND        CLOUDY    29  21  72 SW5       30.17F WCI  24
HAYWARD        CLOUDY    27  21  78 S6        30.14F WCI  20
SIREN          CLOUDY    30  23  76 S6        30.15S WCI  24
CUMBERLAND     CLOUDY    28  21  74 SE7       30.16R WCI  21
RICE LAKE      CLOUDY    28  23  79 SE6       30.18R WCI  22
CHETEK         CLOUDY    28  22  76 E7        30.17S WCI  21
LADYSMITH      CLOUDY    28  22  77 CALM      30.19S
EAU CLAIRE     CLOUDY    29  20  69 SE7       30.18S WCI  22
MENOMONIE      MOCLDY    30  22  73 SE5       30.18S WCI  25
NEW RICHMOND   CLOUDY    30  24  78 SE6       30.16S WCI  24
OSCEOLA        CLOUDY    31  25  78 SE6       30.18S WCI  26
$$

WIZ003>005-009-010-017-018-280000-
NORTH CENTRAL WISCONSIN

CITY           SKY/WX    TMP DP  RH WIND       PRES   REMARKS
MANITOWISH WTR CLOUDY    23  19  86 W3        30.15R
ARBOR VITAE    CLOUDY    25  19  80 CALM      30.15S
WOODRUFF       CLOUDY    25  19  80 CALM      30.15S
RHINELANDER    CLOUDY    23  18  81 S3        30.16S
EAGLE RIVER    CLOUDY    23  17  77 SW5       30.15R WCI  17
LAND O LAKES   CLOUDY    24  19  82 SW5       30.15S WCI  18
PHILLIPS       CLOUDY    24  19  82 CALM      30.16R
TOMAHAWK       CLOUDY    24  19  81 CALM      30.18R
MEDFORD        CLOUDY    25  19  80 CALM      30.17R
MERRILL        CLOUDY    25  19  77 CALM      30.19R
$$

WIZ029-030-035-036-043>047-280000-
CENTRAL WISCONSIN

CITY           SKY/WX    TMP DP  RH WIND       PRES   REMARKS
WAUSAU         CLOUDY    24  20  84 CALM      30.18R
MOSINEE        NOT AVBL
MARSHFIELD     CLOUDY    25  20  81 S3        30.19R
STEVENS POINT  CLOUDY    23  19  85 E3        30.21R
WAUPACA        CLOUDY    28  19  68 CALM      30.23S
WAUTOMA        NOT AVBL
WISC RAPIDS    CLOUDY    26  21  81 CALM      30.23R
CAMP DOUGLAS   NOT AVBL
$$

WIZ011>013-019>022-031-037>040-048>050-280000-
NORTHEAST WISCONSIN

CITY           SKY/WX    TMP DP  RH WIND       PRES   REMARKS
ANTIGO         CLOUDY    23  17  80 CALM      30.18R
SHAWANO        CLOUDY    28  17  64 CALM      30.24R
OCONTO         MOCLDY    22  16  76 SE3       30.25S
STURGEON BAY   PTCLDY    21  14  73 CALM      30.26R
GREEN BAY      CLOUDY    25  17  72 CALM      30.25R
MANITOWOC      NOT AVBL
APPLETON       CLOUDY    27  16  63 VRB3      30.23S
CLINTONVILLE   CLOUDY    27  18  69 CALM      30.23S
OSHKOSH        CLOUDY    26  16  65 NE5       30.23R WCI  20
$$

WIZ032>034-041-042-053>061-280000-
SOUTHWEST WISCONSIN

CITY           SKY/WX    TMP DP  RH WIND       PRES   REMARKS
LA CROSSE      CLOUDY    30  21  69 SE3       30.21S
SPARTA         CLOUDY    28  21  77 CALM      30.23R
VIROQUA        CLOUDY    26  22  82 CALM      30.20R
BOSCOBEL       CLOUDY    29  21  72 CALM      30.24R
PRAIRIE DU CHI CLOUDY    30  21  70 CALM      30.23R
PLATTEVILLE    CLOUDY    28  23  81 CALM      30.21R
$$

WIZ056-057-062-063-064-067-068-280000-
SOUTH CENTRAL WISCONSIN

CITY           SKY/WX    TMP DP  RH WIND       PRES   REMARKS
REEDSBURG      CLOUDY    26  24  92 CALM      30.21S FOG
BARABOO/DELLS  CLOUDY    26  24  90 CALM      30.21S FOG
LONE ROCK      NOT AVBL
MINERAL POINT  CLOUDY    30  25  80 CALM      30.19S
MADISON        CLOUDY    27  22  81 NE3       30.21S
MIDDLETON      CLOUDY    29  26  90 E3        30.21S
WATERTOWN      CLOUDY    28  20  70 CALM      30.21S
MONROE         CLOUDY    28  27  93 CALM      30.20R FOG
JANESVILLE     CLOUDY    30  25  80 N6        30.21S WCI  24
$$

WIZ051-052-058>065-066-070>072-280000-
SOUTHEAST WISCONSIN

CITY           SKY/WX    TMP DP  RH WIND       PRES   REMARKS
MILWAUKEE      MOCLDY    26  15  63 NE5       30.24R WCI  20
WAUKESHA       NOT AVBL
MILWAUKEE/TIMM CLOUDY    27  16  63 NE5       30.24R WCI  21
RACINE         PTCLDY    26  16  65 N8        30.25R WCI  18
BURLINGTON     CLOUDY    27  16  64 E5        30.22R WCI  21
KENOSHA        CLEAR     26  17  68 NE6       30.24R WCI  19
FOND DU LAC    CLOUDY    26  17  68 N7        30.22S WCI  18
SHEBOYGAN      CLOUDY    26  18  71 NE5       30.24R WCI  20
WEST BEND      CLOUDY    28  18  64 E5        30.22R WCI  23
JUNEAU         CLOUDY    27  19  70 CALM      30.23R
$$

LSZ147-162-280000-
LAKE SUPERIOR

STATION/POSITION TIME  TEMP    WIND        PRES    WAVE
                       AIR SEA DIR/SP/G            HT/PER
                 (UTC) (F)     (DEG/KT/KT) (MB)    (FT/S)
DEVILS ISLAND    2200   29     220/  3/  4 1022.8R
PORT WING        2240   31     170/  5/  6 1021.7S
SAXON HARBOR     2200   30        CALM     1022.4R
$$

LMZ867-665-643>646-280000-
LAKE MICHIGAN

STATION/POSITION TIME  TEMP    WIND        PRES    WAVE
                       AIR SEA DIR/SP/G            HT/PER
                 (UTC) (F)     (DEG/KT/KT) (MB)    (FT/S)
NORTHPORT PIER   2200   24     350/  3/  4 1024.0R
SISTER BAY       2213   27     360/  8/  9   N/A
KEWAUNEE LAKESHO 2200   26      20/  1/  3 1023.0R
SHEBOYGAN LAKESH 2200   26      10/  7/  9 1025.0R
PORT WASHINGTON  2200   28      30/  6/  9 1024.4
MILWAUKEE LAKESH 2200   27      40/  9/ 10   N/A
KENOSHA   LAKESH 2200   27      20/ 10/ 12 1023.4R
$$

TC  - TEMPERATURE IN CELSIUS
VSB - VISIBILITY IN STATUTE MILES
WCI - WIND CHILL INDEX
HX  - HEAT INDEX



USA.gov is the U.S. government's official web portal to all federal, state and local government web resources and services.